Flag for Brazil Weather past 2 weeks in Campinas, São Paulo, Brazil

Now
63 °F

Sunny.


Feels Like: 63 °F
Forecast: 52 / 70 °F
Wind: 6 mph from Northeast

Location: Campinas Aeroporto

Current Time: May 30, 2015 at 10:46:29 AM

Latest Report: May 30, 2015 at 10:00 AM


Visibility: 10 mi

Pressure: 30.12 "Hg

Humidity: 77%

Dew point: 55 °F

Location of CampinasLocation

Historic Weather in Campinas — Graph

°F

Campinas temperature yesterday

Maximum temperature yesterday: 72 °F (at 3:00 PM)
Minimum temperature yesterday: 59 °F (at 6:00 AM)
Average temperature yesterday: 64 °F

Past Weeks' High & Low Weather Summary

 TemperatureHumidityPressure
High84 °F (May 25, 3:00 PM)100% (May 16, 6:00 AM)30.33 "Hg (May 16, 6:00 AM)
Low52 °F (May 30, 7:00 AM)40% (May 25, 3:00 PM)29.95 "Hg (May 29, 5:00 AM)
Average68 °F77%30.15 "Hg
* Reported May 15 10:00 AM — May 30 10:00 AM, Campinas, Weather by CustomWeather, © 2015

Note: Actual official high and low records may vary slightly from our data, if they occured in-between our weather recording intervals... More about our weather records

Advertising

Campinas weather history for previous 24 hours

 ConditionsComfort  
Time TempWeatherWind HumidityBarometerVisibility
10:00 AM
Sat, May 30
63 °FSunny.6 mph77%30.12 "Hg10 mi
9:00 AM59 °FSunny.5 mph82%30.09 "Hg10 mi
8:00 AM54 °FSunny.5 mph100%30.09 "Hg10 mi
7:00 AM52 °FSunny.7 mph100%30.07 "Hg10 mi
6:00 AM54 °FPassing clouds.6 mph94%30.07 "HgN/A
5:00 AM54 °FPassing clouds.5 mph94%30.04 "HgN/A
4:00 AM54 °FPassing clouds.3 mph94%30.04 "HgN/A
3:00 AM55 °FPassing clouds.5 mph94%30.04 "HgN/A
2:00 AM55 °FPassing clouds.3 mph88%30.04 "HgN/A
1:00 AM57 °FPassing clouds.2 mph82%30.04 "HgN/A
12:00 AM61 °FPassing clouds.2 mph63%30.04 "HgN/A
11:00 PM
Fri, May 29
63 °FPassing clouds.3 mph59%30.07 "HgN/A
10:00 PM63 °FPassing clouds.5 mph64%30.04 "HgN/A
9:00 PM64 °FPassing clouds.6 mph60%30.04 "HgN/A
8:00 PM64 °FPassing clouds.3 mph68%30.01 "HgN/A
7:00 PM64 °FPassing clouds.6 mph68%29.98 "HgN/A
6:00 PM66 °FPassing clouds.7 mph64%29.98 "HgN/A
5:00 PM70 °FPassing clouds.10 mph57%29.95 "HgN/A
4:00 PM70 °FScattered clouds.14 mph60%29.95 "HgN/A
3:00 PM72 °FScattered clouds.14 mph57%29.95 "HgN/A
2:00 PM70 °FScattered clouds.10 mph64%29.95 "HgN/A
1:00 PM68 °FScattered clouds.7 mph73%29.98 "HgN/A
12:00 PM66 °FBroken clouds.6 mph78%30.01 "HgN/A
11:00 AM66 °FBroken clouds.7 mph78%30.04 "HgN/A
10:00 AM63 °FCloudy.3 mph94%30.04 "Hg6 mi
Weather by CustomWeather, © 2015

See weather overviewHow to use our weather pages